« Back
NWS Peachtree City, Ga » Text Product » GA Regional Weather Roundup


Printer-friendly Version
Current Version              Previous Versions:   1  2  3  4  5  6  7  8  9  

Regional Weather Roundup

033
ASUS42 KFFC 022303
RWRGA
WEATHER ROUNDUP FOR GEORGIA
NATIONAL WEATHER SERVICE PEACHTREE CITY GA
700 PM EDT SUN AUG 02 2015

NOTE: "FAIR" INDICATES FEW OR NO CLOUDS BELOW 12,000 FEET WITH NO
SIGNIFICANT WEATHER AND/OR OBSTRUCTIONS TO VISIBILITY.

* = USE WITH CAUTION. THE STATIONS MARKED WITH AN ASTERISK MAY NOT
REPORT WEATHER SUCH AS PRECIPITATION, FOG, OR THUNDER AND ARE NOT
QUALITY CONTROLLED BY NWS.

THE REMARK "TC" DENOTES TEMPERATURE READING IN DEGREES CELSIUS.

GAZ001>058-030000-
NORTH GEORGIA

CITY           SKY/WX    TMP DP  RH WIND       PRES   REMARKS
ATLANTA        MOSUNNY   92  58  31 E5        29.89S HX  91
ATHENS         MOSUNNY   93  57  29 N6        29.88F HX  91
CHAMBLEE       SUNNY     94  61  33 NE7       29.89S HX  94
PEACHTREE CITY MOSUNNY   94  62  34 NE3       29.89S HX  94
ROME           SUNNY     92  60  34 NE9       29.87F HX  91
WEST ATLANTA   SUNNY     93  60  33 NW3       29.87F HX  93
GAINESVILLE    SUNNY     89  57  33 E7        29.94S
CARTERSVILLE   SUNNY     92  59  33 NE3       29.89F HX  91


CITY           SKY/WX    TMP DP  RH WIND       PRES   REMARKS
DALTON*        SUNNY     86  63  45 N6        29.90F
LAWRENCEVILLE* MOSUNNY   90  61  37 NE9       29.89F
MARIETTA       MOSUNNY   91  61  36 N7        29.89F HX  91
KENNESAW*      MOSUNNY   90  61  37 N3        29.90
BLAIRSVILLE*     N/A     84  16   8 CALM      29.97F
$$

GAZ059>098-102>109-030000-
CENTRAL GEORGIA

CITY           SKY/WX    TMP DP  RH WIND       PRES   REMARKS
AUGUSTA-BUSH   LGT RAIN  81  72  74 NE8       29.89R
AUGUSTA-DANIEL PTSUNNY   78  69  73 N9        29.91S
COLUMBUS       SUNNY     89  68  49 SE6       29.84F HX  93
MACON          SUNNY     91  70  49 E8        29.85F HX  96
ROBINS AFB     SUNNY     91  72  53 E8        29.84F HX  98


CITY           SKY/WX    TMP DP  RH WIND       PRES   REMARKS
LAGRANGE*      PTSUNNY   94  74  52 S5        29.87S HX 104
SYLVANIA*      MOSUNNY   85  77  75 SE6       29.89F HX  96
MILLEDGEVILLE* MOSUNNY   91  64  40 CALM      29.86R HX  93
$$

GAZ099>101-110>166-030000-
SOUTH GEORGIA

CITY           SKY/WX    TMP DP  RH WIND       PRES   REMARKS
SAVANNAH       PTSUNNY   81  75  82 S5        29.90S
VALDOSTA       PTSUNNY   82  77  84 E8        29.83F HX  90
ALMA           CLOUDY    80  75  84 SE7       29.86S
ST SIMONS      LGT RAIN  78  73  84 S6        29.87F
ALBANY         SUNNY     86  76  71 CALM      29.85F HX  96
HUNTER AFB     MOSUNNY   81  77  86 S14       29.87S
MOODY AFB      SUNNY     83  74  75 E8        29.83F
BRUNSWICK      CLOUDY    77  73  88 CALM      29.88F


CITY           SKY/WX    TMP DP  RH WIND       PRES   REMARKS
BAINBRIDGE*    SUNNY     88  77  70 NE3       29.82F HX 100
MOULTRIE*      SUNNY     86  73  66 E5        29.83F HX  93
VIDALIA*       CLOUDY    81  75  83 E9        29.88S
WAYCROSS*      CLOUDY    82  78  86 S6        29.86F HX  91
DOUGLAS*       PTSUNNY   82  73  74 SE6       29.87S
$$



USA.gov is the U.S. government's official web portal to all federal, state and local government web resources and services.